Всё
Mangaia Airport (Mangaia (Auau Enua)) MGS Погода
|
Mangaia (Auau Enua) (MGS / NCMG)
Безоблачно
Легкий ветер |
|
30 °C |
There is no TAF data available at MGS or any nearby airports.
Недавняя история METAR для MGS
| Date | Time (-10) | Flight Rules | Wind Dir. | Speed | Type | Height AGL (ft) | Visibility | Temp (°C) | Temp (°F) | Dew Point (°C) | Dew Point (°F) | Rel. Humid. | Pressure | Density Altitude | Remarks |
|---|---|---|---|---|---|---|---|---|---|---|---|---|---|---|---|
| 02-май | 12:00 | n/a | 330° | 4 kt | Missing | 30° | 86° | 24° | 75° | 70% | 1011 mb | 1,876 ft | |||
| 02-май | 11:00 | n/a | 330° | 3 kt | Missing | 29° | 84° | 24° | 75° | 74% | 1012 mb | 1,727 ft | |||
| 02-май | 10:00 | n/a | 20° | 3 kt | Missing | 27° | 80° | 24° | 75° | 84% | 1012 mb | 1,487 ft | |||
| 02-май | 09:00 | n/a | 50° | 2 kt | Missing | 25° | 77° | 25° | 77° | 100% | 1011 mb | 1,276 ft | |||
| 02-май | 08:00 | n/a | 80° | 3 kt | Missing | 23° | 73° | 23° | 73° | 100% | 1010 mb | 1,066 ft | |||
| 02-май | 07:00 | n/a | 70° | 3 kt | Missing | 23° | 73° | 22° | 71° | 94% | 1010 mb | 1,066 ft | |||
| 02-май | 06:00 | n/a | 50° | 3 kt | Missing | 22° | 71° | 22° | 71° | 100% | 1009 mb | 975 ft | |||
| 02-май | 05:00 | n/a | 60° | 3 kt | Missing | 22° | 71° | 22° | 71° | 100% | 1010 mb | 946 ft | |||
| 02-май | 04:00 | n/a | 90° | 3 kt | Missing | 22° | 71° | 22° | 71° | 100% | 1010 mb | 946 ft | |||
| 02-май | 03:00 | n/a | 90° | 3 kt | Missing | 22° | 71° | 22° | 71° | 100% | 1010 mb | 946 ft | |||
| 02-май | 02:00 | n/a | 90° | 3 kt | Missing | 22° | 71° | 22° | 71° | 100% | 1011 mb | 916 ft | |||
| 02-май | 01:00 | n/a | 90° | 3 kt | Missing | 22° | 71° | 22° | 71° | 100% | 1011 mb | 916 ft | |||
| 02-май | 00:00 | n/a | 90° | 3 kt | Missing | 23° | 73° | 22° | 71° | 94% | 1011 mb | 1,036 ft | |||
| 01-май | 23:00 | n/a | 100° | 3 kt | Missing | 23° | 73° | 23° | 73° | 100% | 1011 mb | 1,036 ft | |||
| 01-май | 22:00 | n/a | 80° | 3 kt | Missing | 24° | 75° | 23° | 73° | 94% | 1011 mb | 1,156 ft | |||
| 01-май | 21:00 | n/a | 100° | 3 kt | Missing | 24° | 75° | 23° | 73° | 94% | 1011 mb | 1,156 ft | |||
| 01-май | 20:00 | n/a | 130° | 2 kt | Missing | 25° | 77° | 23° | 73° | 89% | 1011 mb | 1,276 ft | |||
| 01-май | 19:00 | n/a | 210° | 2 kt | Missing | 26° | 78° | 23° | 73° | 84% | 1011 mb | 1,396 ft | |||
| 01-май | 18:00 | n/a | 260° | 3 kt | Missing | 26° | 78° | 24° | 75° | 89% | 1010 mb | 1,426 ft | |||
| 01-май | 17:00 | n/a | 280° | 3 kt | Missing | 27° | 80° | 24° | 75° | 84% | 1010 mb | 1,546 ft | |||
| 01-май | 16:00 | n/a | 250° | 4 kt | Missing | 29° | 84° | 26° | 78° | 84% | 1010 mb | 1,786 ft | |||
| 01-май | 15:00 | n/a | 280° | 5 kt | Missing | 29° | 84° | 25° | 77° | 79% | 1010 mb | 1,786 ft | |||
| 01-май | 14:00 | n/a | 280° | 6 kt | Missing | 28° | 82° | 25° | 77° | 84% | 1010 mb | 1,666 ft | |||
| 01-май | 13:00 | n/a | 300° | 7 kt | Missing | 27° | 80° | 24° | 75° | 84% | 1011 mb | 1,516 ft |
Вход
| Ваш браузер не поддерживается.. обновите веб-браузер |
